Location: Newark
(22.3060°N, 114.2134°E)
Time: 06:51:55
(UTC+00:00)

Vanguard 2 - Pass Details

Date: 03 August 2021
Orbit: 553 x 2937 km, 32.9° (Epoch: 24 September)

Event Time Altitude Azimuth Distance (km) Brightness Sun altitude
Rises 16:42:10 0° 214° (SW) 3,998 - -50.3°
Reaches altitude 10° 16:46:04 10° 200° (SSW) 2,638 - -50.2°
Maximum altitude 16:50:24 21° 153° (SSE) 1,637 - -50.0°
Drops below altitude 10° 16:53:48 10° 103° (ESE) 2,006 - -49.9°
Sets 16:56:17 0° 85° (E) 2,786 - -49.8°
